[[{"header":{"parameterUnit":"m.s-1","parameterCategory":1,"la1":30.2991,"la2":30.254,"lo1":-89.0895,"lo2":-89.0444,"dy":0.0017,"dx":0.0017,"nx":28,"ny":28,"refTime":"2025-04-18T21:00:00:Z","depth":0,"parameterNumber":2,"parameterNumberName":"U-component_of_WINDS"},"data":[0,0,0,0,0,0,0,0,0,0,0,0,0,0,0,0,0,0,0,0,0,0,0,0,0,0,0,0,0,0,0,0,0,0,0,0,0,0,0,0,0,0,0,0,0,0,0,0,0,0,0,0,0,0,0,0,0,0,-4.1337,-4.1338,0,-4.1467,-4.1468,-4.147,-4.1463,-4.1461,-4.1459,-4.1458,-4.1592,-4.1597,-4.1602,0,0,0,0,0,0,0,0,0,0,0,0,0,-4.1085,-4.1089,-4.1337,-4.1338,-4.134,-4.1467,-4.1468,-4.147,-4.1463,-4.1461,-4.1459,-4.1457,-4.159,-4.1596,-4.1602,0,0,0,0,0,0,0,0,0,0,0,0,0,-4.1202,-4.1091,-4.1336,-4.1352,-4.1355,-4.1466,-4.1468,-4.1471,-4.1464,-4.1461,-4.1458,-4.1456,-4.1588,-4.1595,-4.1603,-4.1708,0,0,-4.1628,-4.1631,0,0,0,0,0,0,0,0,-4.1196,-4.1212,-4.1348,-4.1351,-4.1354,-4.1446,-4.1428,-4.155,-4.1465,-4.1422,-4.1458,-4.1454,-4.1545,-4.1557,-4.1587,-4.1715,-4.172,-4.1628,-4.1633,-4.1637,-4.1639,0,0,0,0,0,0,0,-4.1187,-4.1206,-4.1388,-4.135,-4.1354,-4.1353,-4.1367,-4.1452,-4.1498,-4.1426,-4.1426,-4.1441,-4.1547,-4.158,-4.159,-4.1722,-4.1628,-4.1635,-4.164,-4.1643,-4.1943,-4.1946,0,0,0,0,0,0,-4.1176,-4.1199,-4.1384,-4.1392,-4.1266,-4.136,-4.1375,-4.1419,-4.1497,-4.1506,-4.1443,-4.144,-4.1567,-4.1581,-4.1595,-4.1723,-4.1636,-4.1644,-4.1648,-4.194,-4.1944,-4.1947,0,0,0,0,0,0,-4.117,-4.1192,-4.1379,-4.1296,-4.1319,-4.1367,-4.1417,-4.1423,-4.1456,-4.151,-4.1519,-4.1468,-4.1566,-4.1584,-4.168,-4.1727,-4.1648,-4.1655,-4.1936,-4.1941,-4.1945,-4.1979,0,0,0,0,0,0,-4.1163,-4.119,-4.123,-4.1297,-4.1324,-4.1461,-4.142,-4.1428,-4.147,-4.1467,-4.1536,-4.1545,-4.1565,-4.1668,-4.1688,-4.1737,-4.1661,-4.1932,-4.1938,-4.1944,-4.1974,-4.1984,-4.1993,0,0,0,0,0,-4.1154,-4.1235,-4.1232,-4.1255,-4.1374,-4.1464,-4.148,-4.1501,-4.1474,-4.1514,-4.1549,-4.1542,-4.1719,-4.1678,-4.17,-4.1752,-4.1929,-4.1936,-4.1943,-4.1969,-4.1982,-4.1993,0,0,0,0,0,0,-4.1172,-4.1243,-4.1242,-4.1346,-4.1399,-4.1463,-4.1514,-4.1514,-4.1576,-4.1571,-4.1595,-4.1611,-4.1707,-4.174,-4.1693,-4.1858,-4.1821,-4.1833,-4.1833,-4.1845,-4.1855,-4.1844,-4.1668,0,0,0,0,0,-4.1189,-4.1255,-4.1314,-4.14,-4.1427,-4.1466,-4.1506,-4.1518,-4.1574,-4.1596,-4.1638,-4.1694,-4.1762,-4.1806,-4.1871,-4.1979,-4.1994,-4.2026,-4.2036,-4.2043,-4.2053,-4.2112,-4.2127,-4.1971,-4.1971,-4.197,0,0,-4.1222,-4.127,-4.131,-4.1405,-4.1447,-4.1516,-4.1485,-4.1559,-4.161,-4.1608,-4.1701,-4.1734,-4.1797,-4.19,-4.1947,-4.193,-4.2099,-4.2052,-4.2058,-4.2063,-4.2121,-4.2136,-4.2149,-4.1976,-4.1975,-4.1974,0,0,-4.1319,-4.1362,-4.1438,-4.1481,-4.1546,-4.1572,-4.1591,-4.1655,-4.1677,-4.1771,-4.1771,-4.1833,-4.1949,-4.1994,-4.2032,-4.2148,-4.2144,-4.2169,-4.2219,-4.2276,-4.2288,-4.2299,-4.234,-4.2354,-4.2179,-4.2179,-4.2179,0,-4.1352,-4.1455,-4.1477,-4.1551,-4.1593,-4.1595,-4.1673,-4.1714,-4.1797,-4.1826,-4.1806,-4.1953,-4.1996,-4.2109,-4.2137,-4.2168,-4.219,-4.216,-4.2285,-4.2296,-4.2307,-4.2345,-4.236,-4.2181,-4.2181,-4.2181,-4.218,0,-4.1493,-4.1565,-4.1619,-4.1698,-4.1747,-4.1822,-4.1856,-4.1903,-4.1912,-4.194,-4.2036,-4.2088,-4.2164,-4.2192,-4.2201,-4.2307,-4.2294,-4.228,-4.2242,-4.2324,-4.236,-4.2375,-4.2185,-4.2184,-4.2183,-4.2182,0,0,-4.1602,-4.1694,-4.1714,-4.175,-4.1823,-4.1878,-4.1955,-4.2029,-4.2068,-4.2126,-4.2191,-4.229,-4.2277,-4.2321,-4.2335,-4.2386,-4.2473,-4.2365,-4.2367,-4.2382,-4.2592,-4.2601,-4.2618,-4.2472,-4.2475,-4.2478,-4.2587,0,-4.1705,-4.1839,-4.1862,-4.198,-4.2046,-4.205,-4.2116,-4.2168,-4.2198,-4.2259,-4.2291,-4.2361,-4.2339,-4.2365,-4.2416,-4.2452,-4.2516,-4.2445,-4.2532,-4.2535,-4.2514,-4.2638,-4.2647,-4.2747,-4.2601,-4.2604,-4.2605,0,-4.1842,-4.1903,-4.2027,-4.2091,-4.212,-4.2179,-4.2249,-4.2307,-4.2367,-4.2385,-4.2434,-4.2443,-4.2523,-4.2484,-4.2595,-4.2546,-4.2584,-4.2607,-4.2612,-4.2619,-4.2573,-4.2646,-4.278,-4.2794,-4.2628,-4.2627,-4.2625,0,-4.1907,-4.2021,-4.211,-4.2141,-4.2218,-4.226,-4.2294,-4.2351,-4.2394,-4.2456,-4.2485,-4.2556,-4.2594,-4.2649,-4.2677,-4.2646,-4.2786,-4.2749,-4.2803,-4.2802,-4.283,-4.2827,-4.2969,-4.2857,-4.2857,-4.2857,-4.2856,0,-4.2018,-4.2094,-4.214,-4.2194,-4.2279,-4.2306,-4.239,-4.2423,-4.2474,-4.2536,-4.2545,-4.2602,-4.2637,-4.27,-4.2723,-4.2811,-4.2829,-4.2845,-4.285,-4.2843,-4.2841,-4.2867,-4.286,-4.2861,-4.286,-4.2859,-4.2858,0,-4.2104,-4.2139,-4.2236,-4.2301,-4.232,-4.2379,-4.2435,-4.2489,-4.2519,-4.2597,-4.2617,-4.2663,-4.2738,-4.2773,-4.2865,-4.2881,-4.298,-4.2981,-4.296,-4.2961,-4.3012,-4.3006,-4.3174,-4.3197,-4.3071,-4.3072,-4.3073,0,-4.2172,-4.223,-4.2302,-4.2343,-4.2379,-4.2446,-4.249,-4.2519,-4.2565,-4.2638,-4.2683,-4.2758,-4.2819,-4.2939,-4.2982,-4.3053,-4.3054,-4.3109,-4.3065,-4.3057,-4.3054,-4.3049,-4.3055,-4.3116,-4.3117,-4.3118,-4.3119,0,-4.2288,-4.2302,-4.2365,-4.2435,-4.2487,-4.2544,-4.2599,-4.2633,-4.2671,-4.2723,-4.2799,-4.2846,-4.2941,-4.3016,-4.309,-4.3126,-4.3129,-4.3132,-4.3148,-4.3141,-4.3125,-4.3133,-4.2979,-4.3128,-4.3127,-4.3126,-4.3126,-4.3125,-4.2366,-4.2418,-4.2476,-4.2546,-4.2591,-4.2643,-4.2696,-4.2733,-4.2797,-4.2875,-4.289,-4.2971,-4.303,-4.313,-4.3169,-4.3234,-4.3221,-4.3244,-4.325,-4.3254,-4.3256,-4.3117,-4.3247,-4.3247,-4.3247,-4.3247,-4.3247,0,-4.2481,-4.2519,-4.2584,-4.266,-4.2716,-4.2714,-4.2776,-4.2822,-4.2893,-4.2949,-4.3009,-4.3097,-4.317,-4.3219,-4.3292,-4.3334,-4.3338,-4.3353,-4.3349,-4.3357,-4.3264,-4.3242,-4.3349,-4.3349,-4.3349,-4.3349,-4.3349,-4.3349,-4.2547,-4.2634,-4.2656,-4.2765,-4.2804,-4.2882,-4.2918,-4.2966,-4.301,-4.3107,-4.3167,-4.3199,-4.3252,-4.333,-4.3396,-4.3409,-4.3435,-4.3451,-4.3463,-4.3374,-4.3364,-4.3353,-4.3333,-4.3456,-4.3457,-4.355,-4.3551,-4.3551]},{"header":{"parameterUnit":"m.s-1","parameterCategory":1,"la1":30.2991,"la2":30.254,"lo1":-89.0895,"lo2":-89.0444,"dy":0.0017,"dx":0.0017,"nx":28,"ny":28,"refTime":"2025-04-18T21:00:00:Z","depth":0,"parameterNumber":3,"parameterNumberName":"V-component_of_WINDS"},"data":[0,0,0,0,0,0,0,0,0,0,0,0,0,0,0,0,0,0,0,0,0,0,0,0,0,0,0,0,0,0,0,0,0,0,0,0,0,0,0,0,0,0,0,0,0,0,0,0,0,0,0,0,0,0,0,0,0,0,2.9802,2.9803,0,2.992,2.9921,2.9923,2.9956,2.9956,2.9955,2.9954,3.0071,3.0074,3.0078,0,0,0,0,0,0,0,0,0,0,0,0,0,2.9602,2.9606,2.9802,2.9803,2.9805,2.992,2.9921,2.9923,2.9956,2.9955,2.9955,2.9954,3.007,3.0074,3.0078,0,0,0,0,0,0,0,0,0,0,0,0,0,2.9701,2.9607,2.9801,2.9835,2.9839,2.9919,2.9921,2.9923,2.9956,2.9955,2.9955,2.9954,3.0068,3.0074,3.0079,3.0132,0,0,3.0096,3.0098,0,0,0,0,0,0,0,0,2.9695,2.9708,2.9829,2.9833,2.9838,2.9922,2.9894,2.9993,2.9957,2.9912,2.9954,2.9953,3.0022,3.0031,3.0055,3.0138,3.0143,3.0096,3.01,3.0102,3.0104,0,0,0,0,0,0,0,2.9689,2.9704,2.9848,2.983,2.9836,2.9844,2.9857,2.9913,2.9971,2.9916,2.9918,2.9932,3.0024,3.005,3.0058,3.0144,3.0096,3.0101,3.0105,3.0107,3.0278,3.028,0,0,0,0,0,0,2.9676,2.9698,2.9845,2.9852,2.9763,2.9848,2.9863,2.9896,2.997,2.9981,2.9933,2.9933,3.0041,3.0052,3.0062,3.0131,3.0102,3.0107,3.011,3.0277,3.0279,3.028,0,0,0,0,0,0,2.9672,2.9689,2.984,2.9776,2.9795,2.9852,2.989,2.9899,2.9925,2.9983,2.9993,2.9949,3.0041,3.0055,3.0115,3.0136,3.011,3.0115,3.0276,3.0278,3.0279,3.0268,0,0,0,0,0,0,2.9666,2.9687,2.9709,2.9776,2.9799,2.9892,2.9891,2.9902,2.9935,2.9937,3.0001,3.001,3.0041,3.0107,3.0121,3.0143,3.0119,3.0274,3.0277,3.0279,3.0267,3.027,3.0272,0,0,0,0,0,2.9659,2.97,2.971,2.9727,2.9827,2.9893,2.9906,2.9941,2.9936,2.9958,2.9996,3.0008,3.0131,3.0113,3.0129,3.0153,3.0273,3.0276,3.0279,3.0266,3.0269,3.0272,0,0,0,0,0,0,2.9632,2.9709,2.9721,2.9785,2.9832,2.9898,2.9927,2.9943,2.9991,2.9991,3.0031,3.0045,3.0104,3.0134,3.0112,3.0209,3.0202,3.0208,3.0187,3.0191,3.0193,3.0185,3.0124,0,0,0,0,0,2.9633,2.9682,2.9746,2.9796,2.982,2.9869,2.9899,2.9923,2.9973,2.9992,3.0034,3.0081,3.0131,3.0162,3.0211,3.0272,3.0287,3.0296,3.0298,3.03,3.0305,3.0341,3.0346,3.0289,3.0289,3.0289,0,0,2.9637,2.9685,2.9713,2.9792,2.9831,2.988,2.9886,2.9936,2.9972,2.9999,3.006,3.0093,3.0148,3.021,3.0239,3.0237,3.0324,3.0303,3.0304,3.0309,3.0344,3.035,3.0354,3.0291,3.0291,3.029,0,0,2.9669,2.9709,2.9757,2.9797,2.9857,2.989,2.9901,2.9966,2.9989,3.0051,3.0073,3.0116,3.02,3.0239,3.027,3.0318,3.0331,3.0332,3.0344,3.0379,3.0383,3.0388,3.0406,3.0412,3.0337,3.0337,3.0337,0,2.9665,2.974,2.9778,2.9829,2.9864,2.9892,2.9941,2.9977,3.0049,3.0072,3.0069,3.0176,3.0215,3.0287,3.0299,3.0323,3.0337,3.0325,3.038,3.0384,3.0389,3.0407,3.0414,3.0336,3.0336,3.0337,3.0337,0,2.9733,2.9785,2.9816,2.9888,2.9925,2.9974,3.002,3.0053,3.0073,3.0106,3.017,3.0218,3.0277,3.0296,3.0315,3.0371,3.0368,3.0372,3.0366,3.0394,3.0411,3.0418,3.0336,3.0336,3.0336,3.0336,0,0,2.9751,2.9845,2.9855,2.9889,2.9958,2.9999,3.0049,3.0109,3.0137,3.0186,3.023,3.0301,3.0306,3.034,3.0364,3.0395,3.0432,3.0395,3.0397,3.0401,3.0498,3.0495,3.0503,3.0441,3.0442,3.0444,3.0493,0,2.9792,2.9885,2.9922,2.9997,3.0046,3.0074,3.0118,3.0165,3.0197,3.0242,3.0277,3.0328,3.033,3.0351,3.0382,3.0421,3.0452,3.0417,3.0482,3.0483,3.0468,3.0512,3.0509,3.0554,3.05,3.0502,3.0503,0,2.9853,2.9905,2.9986,3.0051,3.0073,3.0111,3.0171,3.0213,3.0267,3.0289,3.0329,3.0352,3.0405,3.0395,3.0469,3.0445,3.0474,3.0496,3.0499,3.0507,3.0495,3.0522,3.0569,3.0576,3.0513,3.0513,3.0512,0,2.986,2.9949,3.001,3.0037,3.0114,3.0141,3.0174,3.0228,3.0262,3.0313,3.0336,3.0391,3.0422,3.0464,3.0501,3.049,3.0573,3.0565,3.0592,3.0591,3.0608,3.0607,3.0662,3.0625,3.0625,3.0625,3.0624,0,2.9903,2.9951,3.0014,3.0051,3.0106,3.0148,3.0201,3.0236,3.0283,3.0327,3.0354,3.0394,3.0441,3.0487,3.0516,3.0574,3.0587,3.0606,3.0613,3.0604,3.0602,3.0624,3.0622,3.0626,3.0626,3.0626,3.0625,0,2.992,2.9964,3.0032,3.01,3.0118,3.0156,3.0214,3.0251,3.0285,3.034,3.0355,3.0408,3.0465,3.0506,3.0577,3.0597,3.066,3.0666,3.0642,3.0646,3.0671,3.0668,3.0742,3.0754,3.0708,3.0708,3.0709,0,2.9945,2.9983,3.0056,3.0089,3.0122,3.0173,3.0209,3.0251,3.0287,3.0353,3.0382,3.044,3.0489,3.0577,3.0622,3.0677,3.0686,3.0708,3.0694,3.0685,3.0688,3.0686,3.069,3.071,3.0711,3.0711,3.0711,0,2.9986,3.0006,3.0057,3.0117,3.016,3.0208,3.0257,3.0281,3.0332,3.0371,3.043,3.0468,3.0543,3.0601,3.0661,3.0694,3.0711,3.0715,3.0724,3.0716,3.0701,3.0711,3.0649,3.0713,3.0713,3.0713,3.0713,3.0713,3.0009,3.0045,3.0102,3.0159,3.0201,3.0246,3.0285,3.0324,3.0375,3.044,3.0461,3.0522,3.0576,3.0659,3.0693,3.0741,3.074,3.0753,3.0757,3.076,3.076,3.0693,3.0751,3.0751,3.0751,3.0751,3.0751,0,3.0052,3.0091,3.0143,3.0211,3.0256,3.027,3.0325,3.0361,3.0415,3.0464,3.0513,3.0581,3.0637,3.0687,3.0745,3.0774,3.0784,3.0788,3.0787,3.0795,3.0756,3.0743,3.078,3.078,3.078,3.078,3.078,3.078,3.008,3.0142,3.017,3.0253,3.0291,3.0353,3.0383,3.0425,3.0465,3.054,3.0588,3.062,3.067,3.0733,3.0785,3.0798,3.0819,3.0822,3.0837,3.08,3.0797,3.0794,3.0782,3.0826,3.0826,3.0871,3.0872,3.0872]}]]